User: anonymous   Login
Location: State Camp
(41.2367°N, 77.7828°W)
Time: 01:27:44
(UTC-04:00)
Language:

Cosmos 1674 Rocket - Orbit

View from above orbital plane
View from above orbital plane
View from above satellite
View from above satellite

Ground track
Ground track

The orbit data is extracted from the following two-line orbital elements,

1 15945U 85069B   16240.89319403 +.00000113 +00000-0 +10717-4 0  9997
2 15945 082.5262 047.6761 0020139 165.8001 194.3785 14.83874579656457
Epoch (UTC): 27 August 2016 21:26:11
Eccentricity: 0.0020139
inclination: 82.5262°
perigee height: 603 km
apogee height: 631 km
right ascension of ascending node: 47.6761°
argument of perigee: 165.8001°
revolutions per day: 14.83874579
mean anomaly at epoch: 194.3785°
orbit number at epoch: 65645

The dashed part of the orbit path shows where the satellite is in the earth's shadow,  

DLR